EN

Hourly Weather Troszki

Today, 17 April, Saturday

Time Temperature Precipitation Wind Pressure Humidity
00:00 +3°C° 0.3 mm 3 mps 756 mmHg 88%
01:00 +2°C° 0.3 mm 3 mps 756 mmHg 92%
02:00 +2°C° 0.1 mm 3 mps 756 mmHg 92%
03:00 +2°C° 0.1 mm 3 mps 756 mmHg 92%
04:00 +3°C° 0.1 mm 2 mps 756 mmHg 92%
05:00 +3°C° 0 mm 2 mps 756 mmHg 92%
06:00 +4°C° 0 mm 2 mps 756 mmHg 92%
07:00 +4°C° 0 mm 2 mps 756 mmHg 92%
08:00 +5°C° 0 mm 2 mps 756 mmHg 90%
09:00 +5°C° 0 mm 2 mps 756 mmHg 87%
10:00 +6°C° 0 mm 2 mps 756 mmHg 85%
11:00 +7°C° 0.1 mm 2 mps 756 mmHg 83%
12:00 +8°C° 0.1 mm 2 mps 756 mmHg 80%
13:00 +9°C° 0.1 mm 2 mps 756 mmHg 78%
14:00 +10°C° 0.2 mm 2 mps 755 mmHg 78%
15:00 +10°C° 0.2 mm 2 mps 755 mmHg 78%
16:00 +12°C° 0.2 mm 2 mps 755 mmHg 79%
17:00 +10°C° 0.5 mm 2 mps 755 mmHg 83%
18:00 +9°C° 0.5 mm 2 mps 754 mmHg 87%
19:00 +9°C° 0.5 mm 1 mps 754 mmHg 92%
20:00 +8°C° 0.1 mm 1 mps 755 mmHg 93%
21:00 +7°C° 0.1 mm 1 mps 755 mmHg 94%
22:00 +7°C° 0.1 mm 1 mps 755 mmHg 95%
23:00 +7°C° 0 mm 1 mps 755 mmHg 95%

Tomorrow, 18 April, Sunday

Time Temperature Precipitation Wind Pressure Humidity
00:00 +6°C° 0 mm 1 mps 755 mmHg 96%
01:00 +6°C° 0 mm 1 mps 755 mmHg 96%
02:00 +6°C° 0 mm 1 mps 755 mmHg 96%
03:00 +6°C° 0 mm 1 mps 755 mmHg 96%
04:00 +5°C° 0 mm 0 mps 755 mmHg 96%
05:00 +5°C° 0 mm 0 mps 755 mmHg 95%
06:00 +6°C° 0 mm 0 mps 755 mmHg 93%
07:00 +7°C° 0 mm 0 mps 756 mmHg 91%
08:00 +9°C° 0 mm 1 mps 756 mmHg 87%
09:00 +10°C° 0 mm 1 mps 756 mmHg 83%
10:00 +11°C° 0 mm 1 mps 756 mmHg 79%
11:00 +12°C° 0.2 mm 1 mps 755 mmHg 76%
12:00 +13°C° 0.2 mm 1 mps 755 mmHg 72%
13:00 +13°C° 0.2 mm 2 mps 755 mmHg 69%
14:00 +13°C° 0.4 mm 2 mps 755 mmHg 69%
15:00 +14°C° 0.4 mm 2 mps 755 mmHg 68%
16:00 +13°C° 0.4 mm 3 mps 755 mmHg 68%
17:00 +12°C° 0.1 mm 2 mps 755 mmHg 74%
18:00 +10°C° 0.1 mm 2 mps 755 mmHg 80%
19:00 +10°C° 0.1 mm 1 mps 755 mmHg 86%
20:00 +9°C° 0 mm 1 mps 755 mmHg 88%
21:00 +9°C° 0 mm 1 mps 755 mmHg 89%
22:00 +8°C° 0 mm 1 mps 755 mmHg 91%
23:00 +8°C° 0 mm 1 mps 755 mmHg 92%

Day after tomorrow, 19 April, Monday

Time Temperature Precipitation Wind Pressure Humidity
00:00 +8°C° 0 mm 1 mps 755 mmHg 94%
01:00 +8°C° 0 mm 1 mps 755 mmHg 95%
02:00 +8°C° 0 mm 1 mps 755 mmHg 95%
03:00 +7°C° 0 mm 2 mps 755 mmHg 96%
04:00 +7°C° 0 mm 2 mps 754 mmHg 97%
05:00 +8°C° 0.1 mm 2 mps 755 mmHg 95%
06:00 +8°C° 0.1 mm 2 mps 755 mmHg 94%
07:00 +9°C° 0.1 mm 2 mps 755 mmHg 93%
08:00 +10°C° 0.2 mm 3 mps 754 mmHg 83%
09:00 +12°C° 0.2 mm 3 mps 754 mmHg 73%
10:00 +13°C° 0.2 mm 4 mps 754 mmHg 63%
11:00 +14°C° 0 mm 4 mps 754 mmHg 57%
12:00 +15°C° 0 mm 4 mps 754 mmHg 52%
13:00 +17°C° 0 mm 4 mps 754 mmHg 47%
14:00 +15°C° 0.1 mm 4 mps 753 mmHg 48%
15:00 +15°C° 0.1 mm 4 mps 753 mmHg 49%
16:00 +15°C° 0.1 mm 4 mps 753 mmHg 50%
17:00 +13°C° 0 mm 4 mps 753 mmHg 57%
18:00 +12°C° 0 mm 3 mps 753 mmHg 65%
19:00 +10°C° 0 mm 3 mps 753 mmHg 72%
20:00 +9°C° 0 mm 2 mps 753 mmHg 76%
21:00 +9°C° 0 mm 2 mps 753 mmHg 80%
22:00 +8°C° 0 mm 2 mps 753 mmHg 84%
23:00 +8°C° 0.1 mm 2 mps 753 mmHg 84%

20 April, Tuesday

Time Temperature Precipitation Wind Pressure Humidity
00:00 +8°C° 0.1 mm 2 mps 753 mmHg 83%
01:00 +8°C° 0.1 mm 2 mps 753 mmHg 83%
02:00 +8°C° 0 mm 2 mps 753 mmHg 84%
03:00 +7°C° 0 mm 2 mps 752 mmHg 86%
04:00 +6°C° 0 mm 2 mps 752 mmHg 87%
05:00 +7°C° 0 mm 2 mps 752 mmHg 84%
06:00 +8°C° 0 mm 2 mps 752 mmHg 82%
07:00 +8°C° 0 mm 2 mps 752 mmHg 80%
08:00 +9°C° 0.2 mm 2 mps 752 mmHg 74%
09:00 +10°C° 0.2 mm 2 mps 752 mmHg 68%
10:00 +12°C° 0.2 mm 3 mps 752 mmHg 62%
11:00 +12°C° 0.1 mm 3 mps 752 mmHg 59%
12:00 +12°C° 0.1 mm 3 mps 751 mmHg 57%
13:00 +13°C° 0.1 mm 3 mps 751 mmHg 54%
14:00 +13°C° 0 mm 3 mps 751 mmHg 54%
15:00 +14°C° 0 mm 2 mps 751 mmHg 54%
16:00 +14°C° 0 mm 2 mps 750 mmHg 53%
17:00 +13°C° 0 mm 2 mps 750 mmHg 59%
18:00 +10°C° 0 mm 2 mps 750 mmHg 65%
19:00 +10°C° 0 mm 1 mps 750 mmHg 70%
20:00 +9°C° 0 mm 1 mps 750 mmHg 73%
21:00 +9°C° 0 mm 1 mps 750 mmHg 76%
22:00 +8°C° 0 mm 1 mps 750 mmHg 80%
23:00 +8°C° 0 mm 1 mps 750 mmHg 81%

21 April, Wednesday

Time Temperature Precipitation Wind Pressure Humidity
00:00 +7°C° 0 mm 1 mps 750 mmHg 82%
01:00 +7°C° 0 mm 1 mps 750 mmHg 83%
02:00 +7°C° 0 mm 1 mps 750 mmHg 84%
03:00 +6°C° 0 mm 1 mps 749 mmHg 86%
04:00 +6°C° 0 mm 1 mps 749 mmHg 87%
05:00 +7°C° 0 mm 1 mps 749 mmHg 84%
06:00 +8°C° 0 mm 1 mps 749 mmHg 81%
07:00 +9°C° 0 mm 1 mps 749 mmHg 78%
08:00 +9°C° 0.1 mm 2 mps 749 mmHg 74%
09:00 +10°C° 0.1 mm 2 mps 749 mmHg 71%
10:00 +12°C° 0.1 mm 2 mps 749 mmHg 68%
11:00 +13°C° 0.3 mm 2 mps 748 mmHg 62%
12:00 +13°C° 0.3 mm 3 mps 748 mmHg 57%
13:00 +14°C° 0.3 mm 3 mps 747 mmHg 52%
14:00 +14°C° 0.1 mm 3 mps 747 mmHg 52%
15:00 +14°C° 0.1 mm 4 mps 747 mmHg 53%
16:00 +14°C° 0.1 mm 4 mps 747 mmHg 54%
17:00 +12°C° 0.3 mm 4 mps 747 mmHg 63%
18:00 +11°C° 0.3 mm 3 mps 747 mmHg 71%
19:00 +10°C° 0.3 mm 3 mps 747 mmHg 80%
20:00 +8°C° 0.4 mm 4 mps 747 mmHg 83%
21:00 +7°C° 0.4 mm 4 mps 748 mmHg 86%
22:00 +6°C° 0.4 mm 5 mps 748 mmHg 89%
23:00 +5°C° 0.2 mm 5 mps 749 mmHg 89%

22 April, Thursday

Time Temperature Precipitation Wind Pressure Humidity
00:00 +3°C° 0.2 mm 5 mps 749 mmHg 88%
01:00 +3°C° 0.2 mm 5 mps 749 mmHg 87%
02:00 +2°C° 0 mm 5 mps 750 mmHg 88%
03:00 +1°C° 0 mm 4 mps 750 mmHg 88%
04:00 0°C° 0 mm 4 mps 750 mmHg 89%
05:00 +1°C° 0 mm 4 mps 751 mmHg 87%
06:00 +1°C° 0 mm 5 mps 751 mmHg 85%
07:00 +1°C° 0 mm 5 mps 752 mmHg 83%
08:00 +2°C° 0.1 mm 5 mps 752 mmHg 74%
09:00 +3°C° 0.1 mm 5 mps 752 mmHg 65%
10:00 +5°C° 0.1 mm 5 mps 752 mmHg 56%
11:00 +6°C° 0.1 mm 5 mps 752 mmHg 51%
12:00 +7°C° 0.1 mm 5 mps 752 mmHg 46%
13:00 +8°C° 0.1 mm 5 mps 752 mmHg 41%
14:00 +8°C° 0 mm 5 mps 752 mmHg 42%
15:00 +8°C° 0 mm 5 mps 752 mmHg 43%
16:00 +8°C° 0 mm 6 mps 752 mmHg 43%
17:00 +7°C° 0.1 mm 5 mps 753 mmHg 56%
18:00 +6°C° 0.1 mm 5 mps 753 mmHg 68%
19:00 +4°C° 0.1 mm 4 mps 753 mmHg 80%
20:00 +4°C° 0.2 mm 4 mps 754 mmHg 84%
21:00 +4°C° 0.2 mm 3 mps 754 mmHg 88%
22:00 +4°C° 0.2 mm 3 mps 754 mmHg 92%
23:00 +4°C° 0.1 mm 2 mps 754 mmHg 92%
Show more

We Need Your Consent

Meteoprog and our Service Providers may store and access personal data such as cookies, device identifiers or other similar technologies on your device and process such data to personalise content and ads, as well as provide social media features and to analyse the traffic.

  • Store and/or access information on your device

    Cookies, device identifiers or other information can be stored or accessed on your device for the purposes indicated above.

  • Personalised ads and content, ad and content measurement, audience insights, and products development

    Ads and content can be personalised based on a profile. More data can be added to better personalise ads and content. Ad and content performance can be measured. Insights about the audience who saw the ads and content can be derived. Such data can be used to develop or improve user’s experience, systems and software.

By clicking ‘I Agree’ you will allow the use of indicated cookies, device identifiers, web beacons or other similar technologies. Your settings can be changed in the browser on your device.

For certain purposes, legitimate interests may be relied on, rather than consent. You can read more about this in our Privacy and Cookie Policy.